Theta_e
318 321 324 321 319 320 322 323 324 328 337 343 343 343 346 348 349 350 349 349 348 347 344 344 350 350 348 348 350 351 352 350 348 348 347 348 348 347 352 354 351 351 350 351
319 319 321 322 321 321 321 322 323 341 344 345 345 344 341 341 348 348 348 347 347 346 344 343 347 349 348 348 351 352 352 350 350 351 349 349 348 349 351 352 352 353 353 350
318 320 322 323 323 324 321 322 323 328 343 343 346 347 344 341 338 339 346 345 344 345 343 343 344 347 349 348 351 350 351 351 352 352 352 351 350 351 354 353 349 350 351 347
318 320 323 323 323 323 322 323 324 328 337 343 341 347 347 343 341 340 341 344 344 343 343 342 344 347 348 349 350 350 351 352 353 354 353 352 353 354 352 350 350 351 353 353
322 323 323 323 323 323 323 323 324 327 340 342 343 345 343 347 347 340 341 341 343 342 342 342 343 344 347 348 351 350 350 352 353 354 354 352 352 350 349 353 354 354 353 353
322 323 323 323 323 323 323 321 323 324 332 341 341 346 348 348 347 344 342 342 341 341 342 342 343 344 345 348 350 351 351 353 353 353 354 353 353 351 350 354 355 354 354 354
324 323 322 323 321 321 321 318 320 323 324 329 337 347 345 343 346 345 344 344 341 341 341 341 342 344 345 347 350 352 353 354 354 354 355 355 352 350 349 351 353 350 353 353
324 325 322 322 323 322 318 319 319 321 326 327 329 346 344 340 341 345 345 345 343 340 340 341 342 344 345 347 351 353 353 354 354 354 355 354 352 349 350 353 350 350 350 352
323 324 324 323 323 323 320 318 317 318 324 327 328 335 335 338 339 343 346 346 343 340 339 340 341 343 345 347 351 354 354 353 355 354 353 353 353 354 355 355 353 352 351 349
321 323 323 325 322 322 322 317 319 314 319 322 324 330 333 337 340 341 346 346 343 341 340 340 340 343 346 346 351 353 354 353 354 355 355 354 352 353 356 356 355 352 348 348
321 319 322 324 324 324 321 319 317 317 318 322 323 325 326 329 338 341 345 346 343 341 342 341 341 340 344 347 349 354 355 354 354 356 356 355 354 352 354 357 358 357 354 353
317 319 321 322 322 323 324 322 318 321 319 320 323 325 328 327 335 340 340 342 342 340 343 342 342 341 342 347 348 353 356 356 355 356 357 357 356 354 352 355 356 357 359 354
320 319 320 319 319 321 322 322 321 313 315 321 324 324 323 323 339 339 339 339 340 341 338 342 343 341 341 346 348 352 356 357 357 357 358 358 359 358 356 354 353 352 355 357
319 320 320 324 322 322 322 324 321 320 320 320 321 321 322 324 334 339 340 340 339 338 337 334 337 341 342 346 348 349 353 358 358 359 359 359 359 360 359 358 356 355 354 357
315 318 318 318 322 323 325 325 325 321 321 321 319 318 319 319 325 334 338 339 340 339 336 338 338 339 343 345 348 350 351 357 359 361 360 360 360 361 361 361 360 358 356 356
314 318 319 326 324 323 324 325 325 324 323 321 319 320 318 319 320 326 335 339 338 333 335 334 336 338 344 345 349 350 351 357 359 361 362 362 362 362 362 362 363 361 360 358
316 316 319 324 324 323 324 325 325 325 324 322 321 320 320 322 328 329 333 334 332 336 337 338 338 339 344 346 349 350 351 353 359 360 361 362 363 363 363 362 363 363 360 360
317 319 318 322 324 325 324 324 325 323 324 325 322 321 323 323 322 326 326 330 331 333 334 336 339 342 344 345 346 350 351 353 355 360 361 362 363 363 363 364 363 363 361 359
317 321 321 324 326 325 329 328 325 324 326 325 327 324 323 323 324 329 328 330 331 330 330 331 338 343 345 346 345 346 348 351 353 355 359 361 362 362 364 364 363 363 363 360
318 321 322 323 326 329 326 328 326 326 328 334 327 326 326 322 326 322 335 331 327 324 327 334 337 344 343 348 347 346 346 348 350 352 352 358 361 362 363 364 363 363 363 361
329 327 325 324 329 324 325 326 325 328 327 343 339 331 327 332 324 333 336 338 335 328 326 329 333 334 346 348 354 348 348 347 348 351 352 353 359 361 363 364 364 363 362 360
331 333 334 328 329 330 333 336 326 328 344 342 340 339 336 336 336 341 341 342 343 343 344 339 326 327 333 345 356 352 349 350 350 349 351 354 358 360 362 364 364 362 361 356
330 331 334 334 338 332 333 332 331 339 341 344 341 337 336 335 342 345 343 342 350 347 344 356 343 344 344 339 355 356 353 352 354 353 355 356 359 361 364 364 362 360 357 352
330 329 334 332 334 332 334 329 330 332 350 349 349 350 351 353 354 354 353 354 357 357 357 360 359 359 360 361 349 354 357 356 358 358 363 364 364 364 363 362 360 356 352 348
329 330 330 332 331 332 332 328 328 342 348 349 349 350 351 351 351 354 355 355 356 356 357 360 358 359 360 365 363 360 362 363 365 364 363 361 356 357 350 348 349 350 348 348
328 328 331 334 328 333 331 328 328 330 333 337 345 346 344 345 347 349 348 347 350 352 353 354 356 358 359 360 361 363 363 361 358 356 350 345 341 336 335 329 331 344 349 351
Wind_Speed
6 5 13 11 7 7 5 7 7 4 7 18 17 14 23 23 19 21 21 21 20 21 19 24 36 38 35 36 40 41 40 42 41 33 27 25 22 22 17 15 14 20 20 16
5 12 9 9 7 10 12 14 13 5 3 2 11 16 19 17 24 25 22 20 21 20 18 21 32 37 39 37 40 41 45 44 43 36 31 26 25 25 22 19 19 16 14 18
13 7 11 9 10 11 13 17 8 6 3 4 7 2 6 6 3 10 18 22 21 23 21 19 24 35 39 38 40 44 45 45 43 39 34 29 26 26 25 22 20 20 19 18
10 14 13 17 14 14 14 15 9 7 5 9 8 5 8 15 12 14 18 20 21 23 23 20 24 30 37 40 43 45 45 45 41 41 38 35 29 26 30 28 25 22 22 22
9 18 19 17 18 17 14 10 9 9 6 3 3 3 6 10 19 13 18 21 24 24 24 23 24 37 42 41 42 45 47 46 43 42 41 39 34 30 25 23 24 26 27 24
19 9 15 19 14 17 11 8 6 4 4 10 13 13 6 9 10 20 18 22 23 22 22 23 35 37 36 39 40 40 42 44 46 44 43 42 38 34 29 24 21 23 27 27
10 17 9 8 10 10 11 6 5 5 6 10 11 11 12 19 13 21 25 24 21 24 23 22 22 23 32 34 37 38 41 40 45 46 46 44 41 35 32 33 28 23 27 29
11 9 16 11 18 14 10 16 9 8 4 5 6 9 10 12 15 25 27 27 22 26 24 25 24 28 35 36 39 40 41 41 43 45 44 45 42 37 34 33 33 26 30 34
8 10 4 15 14 19 10 11 11 7 3 2 4 7 8 12 8 18 26 22 24 27 26 27 26 32 38 37 42 45 43 44 43 44 44 45 44 40 37 34 25 29 34 34
7 3 11 22 9 17 19 7 5 1 12 15 5 7 6 8 14 17 24 24 26 26 27 24 23 27 36 41 43 45 45 46 46 45 42 43 45 45 41 37 33 32 34 34
20 9 10 4 13 16 8 11 3 6 9 13 8 15 8 10 12 14 21 29 26 22 23 25 21 30 36 36 36 41 42 43 41 41 40 39 40 43 46 43 39 36 34 36
9 12 16 26 9 12 21 16 13 11 8 5 16 19 3 10 10 16 19 22 22 17 19 24 27 26 29 38 38 39 41 42 44 44 42 41 39 41 43 44 45 41 38 36
8 10 11 8 12 12 8 12 18 6 4 20 7 2 9 6 5 8 9 6 8 10 8 13 20 15 16 30 37 38 40 44 43 42 43 39 38 40 42 44 43 46 45 39
10 6 12 21 11 6 7 17 13 17 12 11 21 5 6 1 7 9 15 13 12 10 11 11 10 13 16 30 37 39 41 41 42 41 41 41 41 42 43 43 43 44 46 45
6 6 5 10 16 19 11 11 22 22 21 20 8 10 10 9 9 8 12 11 19 20 12 17 18 20 19 26 36 40 41 39 41 40 41 43 42 42 41 39 41 42 43 42
4 5 7 7 12 23 22 19 21 17 21 19 8 8 10 12 9 8 10 16 18 12 12 13 16 21 23 26 36 40 41 40 41 40 43 41 40 39 40 39 38 38 40 39
4 3 7 6 6 18 17 33 16 12 9 10 11 8 9 8 8 10 10 10 11 15 9 8 11 18 22 32 41 38 39 39 41 43 40 40 40 40 40 38 36 38 37 35
8 2 3 6 3 17 16 16 21 9 7 6 7 9 15 13 13 12 10 9 11 8 7 8 9 12 24 33 32 36 36 37 38 39 38 38 39 39 37 36 36 33 35 35
20 8 4 3 4 4 3 4 9 10 13 9 10 10 9 11 5 1 5 9 11 9 8 9 16 20 23 21 26 29 28 33 33 34 38 40 40 38 36 36 35 34 33 33
21 19 9 3 2 6 4 4 10 7 2 4 10 10 9 7 10 5 4 3 8 10 7 6 14 21 18 24 32 27 29 31 33 39 42 41 40 37 37 37 36 33 35 34
4 1 7 12 5 8 4 7 4 9 7 2 5 7 8 6 7 6 7 4 2 5 9 14 10 12 25 32 29 25 25 29 43 42 39 36 37 39 38 36 33 34 32 32
5 4 3 5 6 5 28 19 6 6 4 4 4 2 9 9 8 6 8 8 6 8 6 3 6 10 18 26 34 27 25 43 38 32 32 35 39 38 36 35 31 33 34 30
6 6 4 5 3 6 14 10 16 9 4 3 6 4 7 8 8 7 7 8 7 7 4 3 4 8 13 23 28 21 37 35 36 36 35 34 33 34 35 37 34 32 32 29
6 6 4 1 4 14 16 23 18 8 7 9 5 9 8 9 7 7 6 6 6 5 5 3 3 1 3 11 27 31 28 31 31 32 30 33 34 32 34 35 37 33 28 26
2 1 6 0 9 15 11 18 16 9 10 15 14 12 11 10 7 7 6 6 6 6 5 9 5 3 4 3 13 21 24 31 28 27 24 26 28 28 25 23 25 29 25 27
1 2 3 4 4 3 6 14 14 19 18 16 12 15 13 10 8 7 8 5 5 7 7 7 10 11 13 9 9 17 23 31 32 28 27 27 27 22 27 21 24 23 24 21
Wind_Direction
194 177 223 213 193 226 233 259 252 306 214 176 185 171 167 177 179 183 184 182 186 187 198 176 185 188 191 194 191 191 190 200 203 205 203 208 212 215 221 218 211 208 215 209
240 223 202 190 201 218 238 250 260 271 181 57 189 180 180 173 185 186 184 188 192 192 187 185 181 184 191 187 189 187 194 200 204 204 202 201 207 212 220 224 220 217 219 222
215 235 190 196 215 224 230 230 225 207 234 123 118 16 238 249 209 183 198 192 193 192 190 190 185 186 188 191 188 189 194 200 203 204 202 203 208 215 224 228 232 233 219 220
227 232 211 211 222 210 239 231 221 230 237 226 160 232 201 227 244 187 194 196 200 199 198 191 188 189 191 194 195 193 195 200 200 202 200 200 204 212 226 229 232 230 222 215
218 195 219 215 216 217 241 234 206 215 225 137 284 161 248 190 223 219 202 201 203 201 199 193 195 193 194 192 194 196 196 199 201 202 202 201 206 215 221 236 237 229 226 222
219 238 200 215 223 221 228 256 235 208 160 234 219 201 245 203 200 217 210 206 202 202 204 202 200 198 196 194 193 193 192 196 201 202 203 203 205 213 216 228 229 232 224 219
228 231 233 182 203 224 198 154 246 245 221 232 203 218 220 210 202 203 205 208 202 200 201 203 200 198 197 192 191 191 191 193 199 200 201 204 208 215 218 222 224 219 214 201
201 242 215 215 207 209 203 205 204 211 212 216 202 219 239 228 208 198 210 211 201 201 198 200 200 198 196 192 189 190 192 195 197 199 200 206 211 215 219 224 226 220 211 201
186 237 264 210 220 195 219 206 198 196 209 308 214 259 291 241 209 215 211 204 202 201 200 200 200 201 194 191 190 191 192 196 197 200 203 205 210 211 215 220 216 212 201 201
220 278 218 239 212 240 209 180 204 226 217 241 255 230 221 212 219 196 207 207 202 198 201 203 203 197 200 194 193 192 194 194 197 200 202 205 209 210 213 219 215 206 208 210
214 205 238 202 222 215 200 210 232 183 196 226 242 248 197 235 212 208 203 200 197 185 191 197 198 202 203 195 192 193 194 196 197 199 200 202 205 207 210 214 220 218 215 215
261 216 232 235 208 201 220 215 196 220 243 245 227 237 242 198 223 195 199 203 201 177 181 196 201 200 187 188 194 195 195 196 198 197 199 202 203 205 209 213 218 221 219 216
321 222 229 272 255 240 205 223 217 147 135 226 207 215 203 228 181 199 207 208 180 189 192 207 197 204 188 190 194 195 197 199 199 196 198 201 202 202 208 212 213 220 223 225
330 243 242 232 215 177 196 224 217 215 215 215 235 199 291 182 188 225 209 194 183 207 207 178 205 211 196 191 195 197 200 199 198 196 198 199 201 203 208 211 212 214 218 220
20 281 265 275 240 206 189 194 217 215 222 212 186 193 228 236 199 219 231 217 204 205 206 217 208 199 198 193 197 199 201 197 196 195 198 203 203 205 206 208 210 213 215 216
329 285 333 258 244 225 220 223 231 221 220 231 160 212 186 231 198 198 212 203 213 205 219 202 200 210 197 191 195 199 197 196 193 197 203 201 201 203 205 205 206 207 212 214
271 321 345 276 218 214 233 221 205 215 206 192 210 192 184 201 200 203 204 206 222 209 198 189 188 202 196 193 194 192 194 193 193 198 202 201 199 201 204 204 202 203 203 205
248 291 265 271 295 200 230 203 219 189 207 210 213 210 206 205 212 200 203 204 197 204 173 186 186 178 191 192 191 195 191 191 195 199 200 201 199 200 200 200 202 201 198 198
211 215 271 260 277 266 232 158 153 177 234 191 196 210 212 221 145 222 227 194 205 185 182 177 192 177 181 189 204 193 189 193 195 199 201 201 200 197 194 197 199 198 195 195
207 202 203 279 326 258 211 266 120 107 273 245 194 199 193 129 206 237 248 207 205 191 180 201 186 175 193 194 197 188 191 188 198 202 204 200 198 195 194 196 196 195 194 193
95 218 193 251 230 279 322 271 59 114 226 231 138 183 147 153 187 189 184 156 236 218 208 189 182 176 183 196 189 186 191 197 205 207 204 198 195 194 194 192 191 188 184 186
118 133 180 279 265 257 350 327 139 206 108 142 110 75 119 125 128 139 123 112 99 72 64 166 183 207 211 188 177 184 184 209 205 202 200 197 191 191 189 185 181 176 180 183
178 175 189 165 232 341 351 323 313 348 96 117 106 115 111 102 121 125 128 122 112 106 77 40 148 181 215 204 194 187 204 202 196 188 190 190 189 184 181 175 172 170 175 174
209 209 133 44 33 1 342 341 345 322 66 27 33 99 89 110 106 100 98 90 80 70 78 41 56 281 246 218 211 210 213 198 183 182 176 170 168 166 170 171 171 167 167 163
215 331 131 300 4 352 7 334 329 9 26 75 45 55 73 88 53 85 81 73 87 91 72 84 80 18 341 186 192 204 189 164 148 147 148 142 145 149 147 149 156 154 158 161
332 185 153 141 80 306 282 315 359 48 35 27 40 55 42 50 71 83 71 54 57 66 59 54 56 51 37 43 104 137 143 148 141 136 135 141 134 126 118 102 95 131 136 146